Retour au catalogue

DMSP 5D-2 F13 DEB

ActifSSO
NORAD 40399·DEBRIS·🇺🇸 United States

Lancé Mar 24, 1995 depuis Vandenberg Space Force Base

Loading…

Prochains Passages (prochaines 24 heures)

TLE

FraisSource: Space-Track

Époque: Sep 14, 2026, 13:15 UTC

1 40399U 95015L   26257.55254514  .00001965  00000-0  72799-3 0  9996
2 40399  98.6946 288.4284 0010238  61.7551 298.4665 14.33393012599253

Suivez DMSP 5D-2 F13 DEB en temps réel avec AllMySat

Download on the App Store